SL-12 DEB

Satellite information

Favourite Embed

Satellite Type and Status

DEBRISIN ORBIT

Key statistics

Satellite SL-12 DEB at a glance.

Uptime

6623

Days in orbit

Revolutions

≈ 4.4

Per day

Orbit

HEO

HEO

Inclination

65.5

Latest

Satellite identification and parameters

Extended collection of information and parameters for SL-12 DEB.

Object identification

Identified? True

Debris? True

Object name: SL-12 DEB

International designator: 2007-052Z

Object number (NORAD): 41692

Object ID (CCSDS): 41692

Country: COMMONWEALTH OF INDEPENDENT STATES (CIS)

Current information (Y/N): Y

RCS size: SMALL

Orbital parameters

Period: 325.914 minutes

Inclination: 65.4706 deg

SMA: 15687.805 km

Apoapsis: 18108.21 km

Periapsis: 511.13 km

RAAN: 292.5583 deg

Eccentricy: 0.5608522

Argument of periapsis: 249.7066 deg

Mean anomaly: 43.706 deg

Mean motion: 4.41834371 rev/day

Mean motion (dot): 0.0000038 rev/day2

B* drag term: 0.00097063 1/REarth

Two-line elements (TLE)

Creation date: Dec. 12, 2025, 7:16 a.m.

Reference frame: TEME

Reference center: EARTH

Epoch: Dec. 11, 2025, 4:55 a.m. UTC

TLE line 0: 0 SL-12 DEB

TLE line 1: 1 41692U 07052Z 25345.20488615 .00000380 00000-0 97063-3 0 9998

TLE line 2: 2 41692 65.4706 292.5583 5608522 249.7066 43.7060 4.41834371 79492

Live tracking on map

Real-time ground track for satellite SL-12 DEB.

In-orbit conjunctions

A list of the most updated potential collisions computed for object SL-12 DEB.

Target Orbit TCA Probability of collision Miss distance Type
CZ-3C DEB GTO 2024-10-18 18:17:41 TBA 2279.0 (m) DEBRIS
ARIANE 44LP DEB MEO 2024-06-03 07:03:30 TBA 2973.0 (m) DEBRIS

Associated space launch

GLONASS navigation satellites

SL-12 DEB was lifted into orbit during the mission ‘Proton | Uragan-M 9 to 11’, on board a Proton space rocket.

The launch took place on Oct. 26, 2007, 7:35 a.m. from 81/24 (81P).

For more information about the launch, click the button.

Launch to space Proton | Uragan-M 9 to 11
Proton | Uragan-M 9 to 11

Agency: N/A

Status: Launch Successful

Launch date: Oct. 26, 2007, 7:35 a.m. UTC

Rocket: Proton

Launch pad: 81/24 (81P)

Location: Baikonur Cosmodrome, Republic of Kazakhstan

...

Latest news about this satellite

There are no fresh news available about this satellite. Check back as we update our databases every day.


Newsletter sign-up

Weekly statistics, charts and insights to help you stay on top of the space industry.